Location: Unspecified
(35.7250°N, 0.0000°E)
Time: 02:33:17
(UTC+00:00)

Vanguard 2 - All Passes

Search period start: 17 June 2019 00:00
Search period end: 27 June 2019 00:00
Orbit: 553 x 2939 km, 32.9° (Epoch: 16 June)

Date Brightness Start Highest point End Pass type
(mag) Time Alt. Az. Time Alt. Az. Time Alt. Az.
17 Jun - 08:31:31 10° SW 08:37:11 38° SSE 08:46:09 10° E daylight
17 Jun - 10:38:12 10° WSW 10:46:08 74° S 10:59:44 10° E daylight
17 Jun - 12:46:23 10° W 12:56:58 73° S 13:13:33 10° ESE daylight
17 Jun - 14:55:48 10° W 15:08:40 50° SSW 15:25:21 10° SE daylight
17 Jun - 17:08:41 10° W 17:19:59 23° SW 17:32:06 10° S daylight
18 Jun - 06:45:53 10° SSE 06:47:39 11° SE 06:49:38 10° ESE daylight
18 Jun - 08:48:57 10° SW 08:54:51 49° SSE 09:04:34 10° E daylight
18 Jun - 10:56:05 10° W 11:04:12 77° S 11:18:05 10° E daylight
18 Jun - 13:04:23 10° W 13:15:07 67° SSW 13:31:38 10° ESE daylight
18 Jun - 15:14:09 10° W 15:26:39 41° SSW 15:42:30 10° SSE daylight
18 Jun - 17:29:12 10° WSW 17:37:47 16° SW 17:46:49 10° S daylight
19 Jun - 07:01:30 10° S 07:05:02 18° SE 07:09:34 10° E daylight
19 Jun - 09:06:35 10° WSW 09:12:39 59° SSE 09:22:54 10° E daylight
19 Jun - 11:14:00 10° W 11:22:17 77° S 11:36:24 10° E daylight
19 Jun - 13:22:25 10° W 13:33:13 60° SSW 13:49:31 10° SE daylight
19 Jun - 15:32:45 10° W 15:44:37 33° SSW 15:59:15 10° SSE daylight
20 Jun - 07:18:17 10° SSW 07:22:31 26° SE 07:28:25 10° E daylight
20 Jun - 09:24:19 10° WSW 09:30:33 67° SSE 09:41:13 10° E daylight
20 Jun - 11:31:56 10° W 11:40:23 74° S 11:54:40 10° ESE daylight
20 Jun - 13:40:31 10° W 13:51:18 51° SSW 14:07:10 10° SE daylight
20 Jun - 15:51:46 10° W 16:02:34 26° SW 16:15:28 10° SSE daylight
21 Jun - 07:35:32 10° SW 07:40:06 36° SSE 07:46:55 10° E daylight
21 Jun - 09:42:10 10° WSW 09:48:32 73° S 09:59:30 10° E daylight
21 Jun - 11:49:54 10° W 11:58:29 68° SSW 12:12:50 10° ESE daylight
21 Jun - 13:58:45 10° W 14:09:21 43° SSW 14:24:30 10° SE daylight
21 Jun - 16:11:32 10° WSW 16:20:31 19° SW 16:30:48 10° S daylight
22 Jun - 07:53:02 10° SW 07:57:48 47° SSE 08:05:15 10° E daylight
22 Jun - 10:00:03 10° W 10:06:33 75° S 10:17:48 10° E daylight
22 Jun - 12:07:53 10° W 12:16:33 60° SSW 12:30:50 10° ESE daylight
22 Jun - 14:17:11 10° W 14:27:24 35° SSW 14:41:28 10° SSE daylight
22 Jun - 16:33:17 10° WSW 16:38:31 12° SW 16:44:08 10° SSW daylight
23 Jun - 06:05:23 10° S 06:08:08 16° SE 06:11:23 10° ESE daylight
23 Jun - 08:10:42 10° WSW 08:15:38 57° SSE 08:23:30 10° E daylight
23 Jun - 10:17:57 10° W 10:24:35 73° S 10:36:03 10° ESE daylight
23 Jun - 12:25:55 10° W 12:34:38 52° SSW 12:48:37 10° SE daylight
23 Jun - 14:35:57 10° W 14:45:27 27° SSW 14:57:57 10° SSE daylight
24 Jun - 06:22:14 10° SSW 06:25:43 24° SSE 06:30:09 10° E daylight
24 Jun - 08:28:28 10° WSW 08:33:32 66° S 08:41:45 10° E daylight
24 Jun - 10:35:52 10° W 10:42:37 67° S 10:54:14 10° ESE daylight
24 Jun - 12:44:03 10° W 12:52:42 43° SSW 13:06:07 10° SE daylight
24 Jun - 14:55:19 10° WSW 15:03:31 20° SSW 15:13:40 10° S daylight
25 Jun - 06:39:33 10° SW 06:43:24 34° SSE 06:48:33 10° E daylight
25 Jun - 08:46:19 10° W 08:51:29 70° S 08:59:57 10° E daylight
25 Jun - 10:53:49 10° W 11:00:40 60° SSW 11:12:18 10° ESE daylight
25 Jun - 13:02:22 10° W 13:10:47 35° SSW 13:23:16 10° SSE daylight
25 Jun - 15:16:04 10° WSW 15:21:37 13° SW 15:27:55 10° S daylight
26 Jun - 06:57:07 10° SW 07:01:10 45° SSE 07:06:47 10° E daylight
26 Jun - 09:04:12 10° W 09:09:28 70° S 09:18:10 10° E daylight
26 Jun - 11:11:48 10° W 11:18:42 51° SSW 11:30:10 10° SE daylight
26 Jun - 13:20:58 10° W 13:28:53 27° SSW 13:39:57 10° SSE daylight
